Onweer van: 25-07-2021 11:00 tot: 20:00 waarschuwing voor: Onweer niveau: Geel info button


waarschuwing voor Onweer Meer informatie blitzortung!


Regen radar Meer informatie rain snow radar


Bezoek onze andere website:

Template documentation
and downloads

And another site



15 daagse weersverwachting Dún Laoghaire (IE)

  • Overzicht
  • Per uur
  • 15 dagen
  • Extra
  • Vergelijk
  • Kaarten
  • Dagkaart
  • Meer »
  • Info
  • Statistieken
  • Directe link
    Temp 6h Neerslag Wind  
 05:33     21:30    Daglengte: 15:57 Vandaag
07:00
15°
 
4
13:00
18°
 
3
19:00
18°
 
2
 05:34     21:29    Daglengte: 15:55 Morgen
01:00
17°
 
2
07:00
16°
 
4
13:00
20°
 
3
19:00
19°
 
5
 05:36     21:27    Daglengte: 15:51 Dinsdag 27 Jul
01:00
16°
10.1 mm
3
07:00
15°
36.8 mm
6
13:00
17°
8.1 mm
7
19:00
17°
8.6 mm
7
 05:37     21:26    Daglengte: 15:49 Woensdag 28 Jul
01:00
14°
51.3 mm
6
Locatie info
Region: Leinster
Latitude: 53.2940°N
Longitude: -6.1359°E
16 masl
Temp/Neerslag /Baro Onweer/Dauwpunt
    Temp Baro 1h Neerslag Dauwpunt Wind UV Bewolking  
 05:33     21:30    Daglengte: 15:57 Vandaag
04:00
15°
1010.0 hPa   13.2°
3
Windvlaag: -0.1 m/s
33%
05:00
15°
1009.9 hPa   13.1°
3
Windvlaag: 0 m/s
32%
06:00
15°
1010.0 hPa   13.0°
4
Windvlaag: -1 m/s
14%
07:00
15°
1010.2 hPa   13.1°
4
Windvlaag: -1.7 m/s
28%
08:00
16°
1010.3 hPa   12.7°
4
Windvlaag: -0.4 m/s
41%
09:00
17°
1010.4 hPa   12.6°
3
Windvlaag: -0.8 m/s
21%
10:00
18°
1010.6 hPa   13.4°
3
Windvlaag: -0.9 m/s
36%
11:00
18°
1010.6 hPa   14.7°
3
Windvlaag: -2.1 m/s
28%
12:00
18°
1010.7 hPa   14.6°
3
Windvlaag: -2.6 m/s
13%
13:00
18°
1010.9 hPa   14.5°
3
Windvlaag: -2.6 m/s
13%
14:00
18°
1010.8 hPa   14.3°
2
Windvlaag: -1.7 m/s
16%
15:00
18°
1010.8 hPa   14.1°
2
Windvlaag: -0.1 m/s
17%
16:00
18°
1010.7 hPa   14.1°
2
Windvlaag: 1.2 m/s
13%
17:00
18°
1010.4 hPa   13.9°
3
Windvlaag: 2 m/s
11%
18:00
18°
1010.4 hPa   13.9°
2
Windvlaag: 2.2 m/s
12%
19:00
18°
1010.3 hPa   14.1°
2
Windvlaag: 2.1 m/s
13%
20:00
18°
1010.4 hPa   13.8°
1
Windvlaag: 2.1 m/s
11%
21:00
17°
1010.5 hPa   13.3°
1
Windvlaag: 2.1 m/s
14%
22:00
17°
1010.8 hPa   14.0°
1
Windvlaag: 2.1 m/s
11%
23:00
17°
1011.0 hPa   14.5°
1
Windvlaag: 1.8 m/s
4%
 05:34     21:29    Daglengte: 15:55 Morgen
00:00
17°
1010.9 hPa   14.0°
1
Windvlaag: 1 m/s
17%
01:00
17°
1010.8 hPa   13.6°
2
Windvlaag: 1.3 m/s
15%
02:00
16°
1010.7 hPa   13.6°
1
Windvlaag: 1.7 m/s
12%
03:00
16°
1010.6 hPa   13.6°
2
Windvlaag: -0.6 m/s
13%
04:00
16°
1010.6 hPa   13.7°
1
Windvlaag: -0.2 m/s
39%
05:00
16°
1010.5 hPa   14.0°
2
Windvlaag: 1 m/s
31%
06:00
16°
1010.7 hPa   13.9°
3
Windvlaag: 0.6 m/s
27%
07:00
16°
1010.9 hPa   13.7°
4
Windvlaag: -0 m/s
10%
08:00
16°
1011.0 hPa   14.1°
5
Windvlaag: -1.1 m/s
13%
09:00
17°
1011.2 hPa   13.9°
5
Windvlaag: -1 m/s
11%
10:00
18°
1011.3 hPa   13.6°
5
Windvlaag: -1.9 m/s
17%
11:00
19°
1011.1 hPa   13.3°
4
Windvlaag: -2.1 m/s
68%
12:00
19°
1010.6 hPa   13.1°
4
Windvlaag: -1.5 m/s
60%
13:00
20°
1010.3 hPa   13.3°
3
Windvlaag: -1.4 m/s
51%
14:00
19°
1009.9 hPa   13.3°
3
Windvlaag: -1.6 m/s
27%
15:00
18°
1009.9 hPa   13.0°
4
Windvlaag: -1.7 m/s
42%
16:00
18°
1009.5 hPa   13.4°
4
Windvlaag: 4.2 m/s
61%
17:00
18°
1009.2 hPa
11%
13.5°
4
Windvlaag: 4.3 m/s
80%
18:00
19°
1008.8 hPa
11%
13.8°
4
Windvlaag: 0.1 m/s
81%
19:00
19°
1008.6 hPa
19%
13.8°
5
Windvlaag: -1 m/s
84%
20:00
19°
1008.6 hPa
65%
14.2°
5
Windvlaag: -0.2 m/s
86%
21:00
18°
1008.8 hPa
32%
14.1°
6
Windvlaag: 1 m/s
86%
22:00
18°
1008.6 hPa
95%
15.2°
5
Windvlaag: 1.2 m/s
97%
23:00
17°
1008.8 hPa 2.6 mm
100%
15.0°
5
Windvlaag: 1.5 m/s
99%
 05:36     21:27    Daglengte: 15:51 Dinsdag 27 Jul
00:00
17°
1008.6 hPa 3.3 mm
100%
14.5°
5
Windvlaag: 0.7 m/s
100%
01:00
16°
1008.9 hPa 4.2 mm
100%
14.6°
3
Windvlaag: -0.9 m/s
99%
02:00
16°
1008.7 hPa 5.1 mm
100%
14.0°
4
Windvlaag: -0.9 m/s
98%
03:00
15°
1008.3 hPa 5.1 mm
100%
13.6°
4
Windvlaag: -0.7 m/s
100%
04:00
15°
1008.2 hPa 5.4 mm
100%
13.4°
4
Windvlaag: 0.3 m/s
100%
05:00
15°
1008.1 hPa 6.3 mm
100%
12.7°
4
Windvlaag: -0.5 m/s
100%
06:00
15°
1008.0 hPa 5.9 mm
97%
12.8°
5
Windvlaag: -2.4 m/s
97%
07:00
15°
1008.2 hPa 8.9 mm
94%
12.6°
6
Windvlaag: -2.6 m/s
97%
08:00
15°
1007.0 hPa
99%
11.9°
7
Windvlaag: 6 m/s
78%
09:00
15°
1007.2 hPa
97%
11.2°
8
Windvlaag: 6.5 m/s
74%
10:00
16°
1007.1 hPa
92%
9.6°
8
Windvlaag: 6.2 m/s
96%
11:00
16°
1007.1 hPa
95%
8.9°
7
Windvlaag: 5.9 m/s
100%
12:00
16°
1007.0 hPa 8.1 mm
100%
8.5°
7
Windvlaag: 5.3 m/s
99%
13:00
17°
1006.9 hPa
100%
8.9°
7
Windvlaag: 5.4 m/s
73%
14:00
18°
1006.4 hPa
30%
9.9°
6
Windvlaag: 4.4 m/s
56%
15:00
18°
1006.4 hPa
80%
10.4°
8
Windvlaag: 6.8 m/s
21%
16:00
18°
1006.3 hPa
83%
8.8°
7
Windvlaag: 5.4 m/s
17%
17:00
17°
1006.1 hPa
46%
10.3°
7
Windvlaag: 5.1 m/s
20%
18:00
17°
1005.9 hPa
93%
8.9°
6
Windvlaag: 5.3 m/s
34%
19:00
17°
1005.9 hPa 8.6 mm
90%
10.5°
7
Windvlaag: 7.8 m/s
20%
20:00
16°
1006.2 hPa 8.6 mm
94%
9.9°
7
Windvlaag: 6.8 m/s
21%
21:00
16°
1006.2 hPa
90%
11.3°
7
Windvlaag: 7.3 m/s
37%
22:00
15°
1006.3 hPa
72%
11.1°
6
Windvlaag: 6.4 m/s
18%
23:00
15°
1006.1 hPa
24%
10.2°
7
Windvlaag: 6.2 m/s
28%
 05:37     21:26    Daglengte: 15:49 Woensdag 28 Jul
00:00
15°
1006.0 hPa
22%
9.7°
6
Windvlaag: 7.2 m/s
17%
01:00
14°
1005.5 hPa
21%
10.0°
6
Windvlaag: 6.9 m/s
16%
Temp/Neerslag /Baro Onweer/Dauwpunt
    Temp Baro Neerslag Dauwpunt Wind Bewolking  
 05:33     21:30    Daglengte: 15:57 Vandaag
04:00
15°
1010.0 hPa   13.2°
3
33%
07:00
15°
1010.2 hPa   13.1°
4
28%
10:00
18°
1010.6 hPa   13.4°
3
36%
13:00
18°
1010.9 hPa   14.5°
3
13%
16:00
18°
1010.7 hPa   14.1°
2
13%
19:00
18°
1010.3 hPa   14.1°
2
13%
22:00
17°
1010.8 hPa   14.0°
1
11%
 05:34     21:29    Daglengte: 15:55 Morgen
01:00
17°
1010.8 hPa   13.6°
2
15%
04:00
16°
1010.6 hPa   13.7°
1
39%
07:00
16°
1010.9 hPa   13.7°
4
10%
10:00
18°
1011.3 hPa   13.6°
5
17%
13:00
20°
1010.3 hPa   13.3°
3
51%
16:00
18°
1009.5 hPa   13.4°
4
61%
19:00
19°
1008.6 hPa   13.8°
5
84%
22:00
18°
1008.6 hPa   15.2°
5
97%
 05:36     21:27    Daglengte: 15:51 Dinsdag 27 Jul
01:00
16°
1008.9 hPa 10.1 mm 14.6°
3
99%
04:00
15°
1008.2 hPa 15.7 mm 13.4°
4
100%
07:00
15°
1008.2 hPa 21.1 mm 12.6°
6
97%
10:00
16°
1007.1 hPa   9.6°
8
96%
13:00
17°
1006.9 hPa 8.1 mm 8.9°
7
73%
16:00
18°
1006.3 hPa   8.8°
7
17%
19:00
17°
1005.9 hPa 8.6 mm 10.5°
7
20%
22:00
15°
1006.3 hPa 8.6 mm 11.1°
6
18%
 05:37     21:26    Daglengte: 15:49 Woensdag 28 Jul
01:00
14°
1005.5 hPa   10.0°
6
16%
04:00
12°
1008.1 hPa 20.8 mm 11.0°
3
1%
07:00
12°
1007.6 hPa 20.8 mm 11.1°
3
0%
10:00
16°
1006.6 hPa 20.8 mm 9.9°
4
0%
13:00
17°
1005.8 hPa 21.5 mm 9.8°
5
0%
16:00
17°
1004.6 hPa 22.6 mm 10.5°
5
1%
19:00
16°
1004.1 hPa 24.3 mm 12.0°
5
1%
22:00
13°
1004.7 hPa 24.6 mm 10.8°
4
0%
 05:39     21:24    Daglengte: 15:45 Donderdag 29 Jul
01:00
12°
1004.0 hPa 24.6 mm 10.3°
5
0%
04:00
11°
1003.2 hPa 24.6 mm 9.7°
5
1%
07:00
12°
1002.7 hPa 24.6 mm 9.0°
5
1%
10:00
14°
1003.0 hPa 24.6 mm 9.5°
8
1%
13:00
17°
1003.6 hPa 24.6 mm 7.0°
6
1%
16:00
17°
1004.0 hPa 24.7 mm 9.1°
6
1%
19:00
14°
1003.9 hPa 25.4 mm 12.3°
7
1%
22:00
13°
1004.6 hPa 26.1 mm 11.6°
7
1%
 05:41     21:22    Daglengte: 15:41 Vrijdag 30 Jul
01:00
13°
1005.2 hPa 26.2 mm 11.9°
9
1%
04:00
13°
1004.6 hPa 26.2 mm 11.7°
8
1%
07:00
14°
1004.4 hPa 26.2 mm 11.5°
6
1%
10:00
15°
1004.2 hPa 26.2 mm 11.8°
6
1%
13:00
14°
1004.1 hPa 27.3 mm 12.8°
6
1%
16:00
14°
1003.8 hPa 27.6 mm 12.7°
6
1%
19:00
15°
1003.3 hPa 28.9 mm 13.6°
5
1%
22:00
14°
1005.0 hPa 30.6 mm 13.1°
5
1%
 05:42     21:21    Daglengte: 15:39 Zaterdag 31 Jul
01:00
13°
1006.5 hPa 30.8 mm 12.0°
5
1%
04:00
11°
1007.2 hPa 30.8 mm 10.9°
6
1%
07:00
11°
1008.6 hPa 30.8 mm 10.7°
6
1%
10:00
15°
1009.2 hPa 30.8 mm 11.7°
5
1%
13:00
16°
1009.7 hPa 31.1 mm 11.8°
4
1%
16:00
17°
1010.3 hPa 31.6 mm 10.5°
4
1%
19:00
16°
1011.1 hPa 31.7 mm 9.4°
5
1%
22:00
13°
1012.8 hPa 31.7 mm 9.9°
4
1%
 05:44     21:19    Daglengte: 15:35 Zondag 01 Aug
01:00
11°
1013.8 hPa 63.4 mm 9.6°
4
1%
07:00
13°
1014.9 hPa 63.4 mm 7.7°
5
1%
13:00
16°
1016.9 hPa 63.5 mm 9.4°
5
1%
19:00
16°
1018.1 hPa 64.7 mm 12.2°
1
1%
 05:46     21:17    Daglengte: 15:31 Maandag 02 Aug
01:00
13°
1020.2 hPa 65.3 mm 10.9°
2
1%
07:00
13°
1020.9 hPa 65.3 mm 9.5°
3
1%
13:00
15°
1022.1 hPa 65.3 mm 7.8°
2
1%
19:00
15°
1021.5 hPa 65.4 mm 10.9°
3
1%
 05:47     21:15    Daglengte: 15:28 Dinsdag 03 Aug
01:00
14°
1022.5 hPa 65.5 mm 11.3°
2
1%
13:00
15°
1022.7 hPa 98.4 mm 9.6°
2
1%
19:00
16°
1021.7 hPa 65.8 mm 11.5°
2
1%
 05:49     21:13    Daglengte: 15:24 Woensdag 04 Aug
01:00
14°
1011.5 hPa 0.6 mm 11.8°
3
78%
07:00
13°
1010.6 hPa 0.7 mm 11.5°
4
68%
13:00
16°
1010.6 hPa 1.0 mm 11.6°
2
72%
19:00
16°
1010.3 hPa 1.3 mm 12.7°
3
77%
 05:51     21:11    Daglengte: 15:20 Donderdag 05 Aug
01:00
14°
1011.2 hPa 1.6 mm 12.1°
3
64%
07:00
13°
1011.0 hPa 0.6 mm 11.2°
3
65%
13:00
16°
1011.2 hPa 1.3 mm 11.9°
2
66%
19:00
16°
1010.9 hPa 1.4 mm 13.0°
3
76%
 05:52     21:09    Daglengte: 15:17 Vrijdag 06 Aug
01:00
14°
1011.5 hPa 0.5 mm 12.0°
2
66%
07:00
13°
1011.1 hPa 0.9 mm 11.7°
3
67%
13:00
16°
1011.9 hPa 0.6 mm 12.0°
2
69%
19:00
17°
1012.0 hPa 0.7 mm 12.8°
2
74%
 05:54     21:08    Daglengte: 15:14 Zaterdag 07 Aug
01:00
14°
1012.8 hPa 0.3 mm 12.3°
3
62%
07:00
13°
1012.6 hPa 0.3 mm 12.2°
3
67%
13:00
17°
1012.8 hPa 0.4 mm 12.3°
2
68%
19:00
17°
1012.4 hPa 0.8 mm 13.1°
3
68%
 05:56     21:06    Daglengte: 15:10 Zondag 08 Aug
01:00
14°
1013.0 hPa 0.2 mm 12.3°
3
76%
07:00
13°
1012.3 hPa 0.5 mm 12.0°
3
76%
13:00
17°
1012.4 hPa 1.4 mm 13.0°
2
72%
19:00
17°
1012.3 hPa 1.8 mm 13.7°
3
77%
 05:57     21:04    Daglengte: 15:07 Maandag 09 Aug
01:00
14°
1013.4 hPa 0.4 mm 12.4°
4
62%
07:00
13°
1014.1 hPa 0.1 mm 11.5°
4
58%
  CAPE Lifted Index Hail Supercell Tornado SRH 3km CL BTM PRES CL TOP PRES Swiss DWD icon SMHI TS
 05:33     21:30    Daglengte: 15:57 Vandaag
04:00 0 J/kg 2.9 K 0 % 0 % 0 % 0 m²/s² 0 0 5.96 3
05:00 0 J/kg 2.7 K 0 % 0 % 0 % 0 m²/s² 0 0 6.48 2
06:00 0 J/kg 2.7 K 0 % 0 % 0 % 0 m²/s² 0 0 7.23 2
07:00 0 J/kg 3.1 K 0 % 0 % 0 % 0 m²/s² 0 0 7.63 3
08:00 0 J/kg 2.3 K 0 % 0 % 0 % 0 m²/s² 0 0 6.5 3
09:00 0 J/kg 1.8 K 0 % 0 % 0 % 0 m²/s² 0 0 6 3
10:00 0 J/kg 2.0 K 0 % 0 % 0 % 0 m²/s² 0 0 6.65 3
11:00 0 J/kg 1.4 K 0 % 0 % 0 % 0 m²/s² 0 0 6.17 3
12:00 0 J/kg 0.2 K 0 % 0 % 0 % 0 m²/s² 0 0 5.09 0
13:00 0 J/kg -0.4 K 0 % 0 % 0 % 0 m²/s² 0 0 4.76 0
14:00 0 J/kg -0.1 K 0 % 0 % 0 % 0 m²/s² 0 0 5.33 0
15:00 15 J/kg -0.3 K 0 % 0 % 0 % 0 m²/s² 0 0 5.13 0
16:00 0 J/kg -1.2 K 0 % 0 % 0 % 0 m²/s² 0 0 4.23 0
17:00 0 J/kg -1.7 K 0 % 0 % 0 % 0 m²/s² 0 0 3.31 0
18:00 0 J/kg -2.3 K 0 % 0 % 0 % 0 m²/s² 0 0 2.11 0
19:00 0 J/kg -2.3 K 0 % 0 % 0 % 0 m²/s² 0 0 1.21 0
20:00 0 J/kg -1.6 K 0 % 0 % 0 % 0 m²/s² 0 0 1.91 0
21:00 0 J/kg -0.7 K 0 % 0 % 0 % 0 m²/s² 0 0 3.41 0
22:00 0 J/kg -0.1 K 0 % 0 % 0 % 0 m²/s² 0 0 4.79 0
23:00 0 J/kg 0.4 K 0 % 0 % 0 % 0 m²/s² 0 0 5.29 2
 05:34     21:29    Daglengte: 15:55 Morgen
00:00 0 J/kg 1.0 K 0 % 0 % 0 % 0 m²/s² 0 0 6.04 3
01:00 0 J/kg 1.7 K 0 % 0 % 0 % 0 m²/s² 0 0 6.59 2
02:00 0 J/kg 2.3 K 0 % 0 % 0 % 0 m²/s² 0 0 7.07 3
03:00 0 J/kg 2.8 K 0 % 0 % 0 % 0 m²/s² 0 0 7.57 2
04:00 0 J/kg 3.6 K 0 % 0 % 0 % 0 m²/s² 0 0 8.25 2
05:00 0 J/kg 4.6 K 0 % 0 % 0 % 0 m²/s² 0 0 9.25 3
06:00 0 J/kg 4.4 K 0 % 0 % 0 % 0 m²/s² 0 0 8.93 3
07:00 0 J/kg 4.1 K 0 % 0 % 0 % 0 m²/s² 0 0 8.6 2
08:00 0 J/kg 4.1 K 0 % 0 % 0 % 0 m²/s² 0 0 8.72 2
09:00 0 J/kg 4.0 K 0 % 0 % 0 % 0 m²/s² 0 0 8.38 2
10:00 0 J/kg 3.1 K 0 % 0 % 0 % 0 m²/s² 0 0 7.36 2
11:00 0 J/kg 1.9 K 0 % 0 % 0 % 0 m²/s² 0 0 5.95 3
12:00 0 J/kg 0.9 K 0 % 0 % 0 % 0 m²/s² 0 0 4.65 3
13:00 6 J/kg 0.5 K 0 % 0 % 0 % 0 m²/s² 0 0 3.95 3
14:00 32 J/kg -0.1 K 0 % 0 % 0 % 0 m²/s² 0 0 3.17 45
15:00 160 J/kg -0.7 K 0 % 0 % 0 % 0 m²/s² 0 0 2.3 3
16:00 306 J/kg -1.7 K 0 % 0 % 0 % 0 m²/s² 0 0 0.82 3
17:00 373 J/kg -2.0 K 0 % 0 % 0 % 0 m²/s² 0 0 0.4 3
18:00 407 J/kg -2.1 K 0 % 0 % 0 % 0 m²/s² 0 0 -0.24 3
19:00 467 J/kg -2.3 K 0 % 0 % 0 % 0 m²/s² 0 0 -1.01 3
20:00 489 J/kg -2.6 K 0 % 0 % 0 % 0 m²/s² 0 0 -1.67 3
21:00 847 J/kg -3.2 K 0 % 0 % 0 % 0 m²/s² 0 0 -2.72 3
22:00 607 J/kg -2.1 K 0 % 0 % 0 % 0 m²/s² 0 0 -2.01 3
23:00 147 J/kg -0.6 K 0 % 0 % 0 % 0 m²/s² 0 0 -0.51 80
 05:36     21:27    Daglengte: 15:51 Dinsdag 27 Jul
00:00 19 J/kg -0.5 K 0 % 0 % 0 % 0 m²/s² 0 0 -0.32 80
01:00 6 J/kg 1.2 K 0 % 0 % 0 % 0 m²/s² 0 0 1.23 61
02:00 1 J/kg 1.7 K 0 % 0 % 0 % 0 m²/s² 0 0 1.88 61
03:00 0 J/kg 2.7 K 0 % 0 % 0 % 0 m²/s² 0 0 3.18 61
04:00 0 J/kg 3.9 K 0 % 0 % 0 % 0 m²/s² 0 0 4.29 61
05:00 0 J/kg 4.1 K 0 % 0 % 0 % 0 m²/s² 0 0 4.34 61
06:00 0 J/kg 4.4 K 0 % 0 % 0 % 0 m²/s² 0 0 4.91 61
07:00 1 J/kg 5.1 K 0 % 0 % 0 % 0 m²/s² 0 0 6.21 61
08:00 11 J/kg 5.5 K 0 % 0 % 0 % 0 m²/s² 0 0 6.88 3
09:00 7 J/kg 5.5 K 0 % 0 % 0 % 0 m²/s² 0 0 7.09 3
10:00 4 J/kg 5.6 K 0 % 0 % 0 % 0 m²/s² 0 0 7.07 3
11:00 14 J/kg 4.2 K 0 % 0 % 0 % 0 m²/s² 0 0 5.73 3
12:00 26 J/kg 3.7 K 0 % 0 % 0 % 0 m²/s² 0 0 4.21 61
13:00 71 J/kg 2.5 K 0 % 0 % 0 % 0 m²/s² 0 0 2.92 61
14:00 132 J/kg 1.1 K 0 % 0 % 0 % 0 m²/s² 0 0 1.52 3
15:00 112 J/kg 1.0 K 0 % 0 % 0 % 0 m²/s² 0 0 1.51 2
16:00 131 J/kg 0.9 K 0 % 0 % 0 % 0 m²/s² 0 0 1.68 2
17:00 221 J/kg 0.1 K 0 % 0 % 0 % 0 m²/s² 0 0 1.39 2
18:00 164 J/kg 0.5 K 0 % 0 % 0 % 0 m²/s² 0 0 2.9 2
19:00 215 J/kg 0.0 K 0 % 0 % 0 % 0 m²/s² 0 0 2.19 80
20:00 203 J/kg -0.3 K 0 % 0 % 0 % 0 m²/s² 0 0 3.51 2
21:00 269 J/kg -0.7 K 0 % 0 % 0 % 0 m²/s² 0 0 3.74 2
22:00 156 J/kg 0.3 K 0 % 0 % 0 % 0 m²/s² 0 0 5.37 2
23:00 59 J/kg 1.2 K 0 % 0 % 0 % 0 m²/s² 0 0 6.54 2
 05:37     21:26    Daglengte: 15:49 Woensdag 28 Jul
00:00 44 J/kg 1.7 K 0 % 0 % 0 % 0 m²/s² 0 0 6.65 1
01:00 16 J/kg 2.1 K 0 % 0 % 0 % 0 m²/s² 0 0 6.45 1
Temp Baro Wind Neerslag
  EWN Forecast EWN WRFDA DWD ICON FMI HIRLAM MET Norway GFS
 05:33     21:30    Daglengte: 15:57 Vandaag
04:00 14.7° 1010.0 hPa 2.7 m/s 0.0 mm 11.9° 1009.9 hPa 2.0 m/s 0.0 mm 14.6° 1010.4 hPa 1.8 m/s -2.0 mm 14.9° 1009.9 hPa 3.4 m/s 0.0 mm 14.2° 1010.4 hPa 0.9 m/s
07:00 14.8° 1010.2 hPa 3.7 m/s 0.0 mm 13.3° 1009.0 hPa 2.5 m/s 0.0 mm 14.8° 1010.5 hPa 2.2 m/s 0.0 mm 14.6° 1010.2 hPa 4.1 m/s 0.0 mm 14.8° 1010.8 hPa 2.0 m/s
10:00 18.0° 1010.6 hPa 2.6 m/s 0.0 mm 19.1° 1009.3 hPa 1.6 m/s 0.0 mm 17.5° 1011.2 hPa 0.9 m/s 0.0 mm 18.0° 1010.3 hPa 2.8 m/s 0.0 mm 17.2° 1011.0 hPa 3.0 m/s
13:00 18.2° 1010.9 hPa 2.8 m/s 0.0 mm 21.6° 1009.2 hPa 3.5 m/s 0.0 mm 18.5° 1011.1 hPa 2.6 m/s 0.0 mm 17.8° 1010.5 hPa 2.6 m/s 0.0 mm 18.0° 1011.3 hPa 3.0 m/s
16:00 18.2° 1010.7 hPa 2.5 m/s 0.0 mm 21.4° 1009.1 hPa 3.6 m/s 0.0 mm 18.6° 1010.9 hPa 2.7 m/s 0.0 mm 18.0° 1010.4 hPa 2.4 m/s 0.0 mm 18.2° 1011.2 hPa 2.0 m/s
19:00 17.7° 1010.3 hPa 1.6 m/s 0.0 mm 20.0° 1008.7 hPa 2.5 m/s 0.0 mm 18.4° 1010.5 hPa 1.4 m/s 0.0 mm 17.3° 1009.9 hPa 0.8 m/s 0.0 mm 17.7° 1010.8 hPa 1.0 m/s
22:00 17.5° 1010.8 hPa 1.3 m/s 0.0 mm 18.1° 1009.1 hPa 1.3 m/s 0.0 mm 17.5° 1011.2 hPa 1.0 m/s 0.0 mm 17.0° 1010.9 hPa 1.3 m/s 0.0 mm 16.3° 1011.4 hPa 1.2 m/s
 05:34     21:29    Daglengte: 15:55 Morgen
01:00 16.7° 1010.8 hPa 1.9 m/s 0.0 mm 17.7° 1008.9 hPa 1.5 m/s 0.0 mm 16.8° 1011.2 hPa 0.6 m/s 0.0 mm 16.6° 1011.1 hPa 2.1 m/s 0.0 mm 16.2° 1010.8 hPa 1.4 m/s
04:00 15.9° 1010.6 hPa 1.5 m/s 0.0 mm 13.0° 1008.6 hPa 2.6 m/s 0.0 mm 16.8° 1011.0 hPa 1.0 m/s 0.0 mm 15.9° 1010.8 hPa 3.9 m/s 0.0 mm 15.7° 1010.6 hPa 2.1 m/s
07:00 15.7° 1010.9 hPa 3.6 m/s 0.0 mm 12.3° 1008.6 hPa 2.8 m/s 0.0 mm 16.1° 1011.4 hPa 3.7 m/s 0.0 mm 14.8° 1011.2 hPa 4.9 m/s 0.0 mm 15.7° 1010.5 hPa 2.8 m/s
10:00 17.7° 1011.3 hPa 4.9 m/s 0.0 mm 18.4° 1008.4 hPa 4.1 m/s 0.0 mm 17.6° 1011.7 hPa 4.8 m/s 0.0 mm 16.8° 1011.6 hPa 5.1 m/s 0.0 mm 18.2° 1010.4 hPa 3.0 m/s
13:00 19.6° 1010.3 hPa 2.9 m/s 0.0 mm 22.6° 1007.8 hPa 4.7 m/s 0.0 mm 19.2° 1010.3 hPa 1.4 m/s 0.0 mm 18.7° 1010.7 hPa 2.4 m/s 0.0 mm 20.1° 1009.9 hPa 2.5 m/s
16:00 17.6° 1009.5 hPa 4.1 m/s 0.0 mm 23.1° 1007.1 hPa 1.4 m/s 0.0 mm 18.0° 1009.9 hPa 2.3 m/s 0.0 mm 17.2° 1009.8 hPa 4.3 m/s 0.0 mm 19.3° 1009.2 hPa 0.5 m/s
19:00 18.9° 1008.6 hPa 4.8 m/s 0.0 mm 21.8° 1007.0 hPa 1.4 m/s 1.7 mm 18.6° 1008.0 hPa 1.3 m/s 0.0 mm 18.0° 1009.2 hPa 6.0 m/s 0.0 mm 18.7° 1008.6 hPa 0.9 m/s
22:00 17.8° 1008.6 hPa 5.3 m/s 0.0 mm 18.7° 1006.9 hPa 4.0 m/s 7.4 mm 17.5° 1008.7 hPa 5.4 m/s 0.1 mm 16.0° 1009.0 hPa 0.8 m/s
 05:36     21:27    Daglengte: 15:51 Dinsdag 27 Jul
01:00 16.1° 1008.9 hPa 3.5 m/s 10.1 mm 14.9° 1009.0 hPa 3.2 m/s 45.7 mm 16.2° 1008.0 hPa 4.3 m/s 1.2 mm 15.9° 1009.3 hPa 3.7 m/s
04:00 15.3° 1008.2 hPa 4.2 m/s 15.7 mm 14.1° 1008.4 hPa 4.4 m/s 71.3 mm 15.4° 1007.3 hPa 5.3 m/s 1.5 mm 15.2° 1008.8 hPa 2.8 m/s
07:00 15.1° 1008.2 hPa 6.0 m/s 21.1 mm 13.6° 1008.7 hPa 4.4 m/s 71.6 mm 15.2° 1006.5 hPa 6.6 m/s 1.0 mm 14.9° 1009.2 hPa 2.3 m/s
10:00 15.6° 1007.1 hPa 7.6 m/s 0.0 mm 15.7° 1009.1 hPa 4.2 m/s 71.7 mm 15.6° 1006.6 hPa 8.5 m/s 0.1 mm 14.2° 1009.3 hPa 3.9 m/s
13:00 16.9° 1006.9 hPa 7.5 m/s 8.1 mm 17.5° 1009.0 hPa 3.4 m/s 71.7 mm 16.7° 1006.3 hPa 8.5 m/s 0.2 mm 14.0° 1010.1 hPa 4.4 m/s
16:00 17.6° 1006.3 hPa 7.3 m/s 0.0 mm 19.1° 1008.4 hPa 2.5 m/s 72.1 mm 17.3° 1005.8 hPa 8.5 m/s 0.0 mm 15.5° 1009.9 hPa 2.7 m/s
19:00 16.8° 1005.9 hPa 6.7 m/s 8.6 mm 18.1° 1008.2 hPa 5.6 m/s 75.0 mm 16.4° 1005.4 hPa 7.0 m/s 0.3 mm 15.9° 1009.5 hPa 4.0 m/s
22:00 15.2° 1006.3 hPa 6.2 m/s 8.6 mm 16.3° 1008.5 hPa 3.0 m/s 76.9 mm 14.9° 1005.7 hPa 7.0 m/s 0.2 mm 13.9° 1009.9 hPa 3.1 m/s
 05:37     21:26    Daglengte: 15:49 Woensdag 28 Jul
01:00 14.1° 1005.5 hPa 6.0 m/s 0.0 mm 14.9° 1007.9 hPa 3.8 m/s 76.9 mm 13.9° 1005.0 hPa 6.5 m/s 0.0 mm 12.5° 1009.5 hPa 3.4 m/s
04:00 11.6° 1008.1 hPa 3.2 m/s 20.8 mm 11.6° 1008.1 hPa 3.2 m/s 20.8 mm
07:00 12.1° 1007.6 hPa 3.5 m/s 20.8 mm 12.1° 1007.6 hPa 3.5 m/s 20.8 mm
10:00 15.5° 1006.6 hPa 3.9 m/s 20.8 mm 15.5° 1006.6 hPa 3.9 m/s 20.8 mm
13:00 17.1° 1005.8 hPa 4.6 m/s 21.5 mm 17.1° 1005.8 hPa 4.6 m/s 21.5 mm
16:00 17.3° 1004.6 hPa 4.6 m/s 22.6 mm 17.3° 1004.6 hPa 4.6 m/s 22.7 mm
19:00 15.8° 1004.1 hPa 4.8 m/s 24.3 mm 15.8° 1004.1 hPa 4.8 m/s 24.3 mm
22:00 12.6° 1004.7 hPa 3.8 m/s 24.6 mm 12.6° 1004.7 hPa 3.8 m/s 24.6 mm
 05:39     21:24    Daglengte: 15:45 Donderdag 29 Jul
01:00 11.6° 1004.0 hPa 4.8 m/s 24.6 mm 11.6° 1004.0 hPa 4.8 m/s 24.6 mm
04:00 11.1° 1003.2 hPa 4.5 m/s 24.6 mm 11.1° 1003.2 hPa 4.5 m/s 24.6 mm
07:00 11.6° 1002.7 hPa 5.5 m/s 24.6 mm 11.6° 1002.7 hPa 5.5 m/s 24.6 mm
10:00 13.8° 1003.0 hPa 7.9 m/s 24.6 mm 13.8° 1003.0 hPa 7.9 m/s 24.6 mm
13:00 16.9° 1003.6 hPa 6.3 m/s 24.6 mm 16.9° 1003.6 hPa 6.3 m/s 24.6 mm
16:00 16.8° 1004.0 hPa 6.2 m/s 24.7 mm 16.8° 1004.0 hPa 6.2 m/s 24.7 mm
19:00 13.9° 1003.9 hPa 6.7 m/s 25.4 mm 13.9° 1003.9 hPa 6.7 m/s 25.4 mm
22:00 12.7° 1004.6 hPa 7.2 m/s 26.1 mm 12.7° 1004.6 hPa 7.2 m/s 26.1 mm
 05:41     21:22    Daglengte: 15:41 Vrijdag 30 Jul
01:00 13.4° 1005.2 hPa 8.7 m/s 26.2 mm 13.4° 1005.2 hPa 8.7 m/s 26.2 mm
04:00 13.3° 1004.6 hPa 7.9 m/s 26.2 mm 13.3° 1004.6 hPa 7.9 m/s 26.2 mm
07:00 13.8° 1004.4 hPa 6.4 m/s 26.2 mm 13.8° 1004.4 hPa 6.4 m/s 26.2 mm
10:00 15.2° 1004.2 hPa 6.2 m/s 26.2 mm 15.2° 1004.2 hPa 6.2 m/s 26.2 mm
13:00 14.0° 1004.1 hPa 6.0 m/s 27.3 mm 14.0° 1004.1 hPa 6.0 m/s 27.3 mm
16:00 14.4° 1003.8 hPa 5.9 m/s 27.6 mm 14.4° 1003.8 hPa 5.9 m/s 27.6 mm
19:00 14.9° 1003.3 hPa 4.6 m/s 28.9 mm 14.9° 1003.3 hPa 4.6 m/s 28.9 mm
22:00 13.6° 1005.0 hPa 5.3 m/s 30.6 mm 13.6° 1005.0 hPa 5.3 m/s 30.6 mm
 05:42     21:21    Daglengte: 15:39 Zaterdag 31 Jul
01:00 12.5° 1006.5 hPa 5.1 m/s 30.8 mm 12.5° 1006.5 hPa 5.1 m/s 30.8 mm
04:00 11.3° 1007.2 hPa 5.6 m/s 30.8 mm 11.3° 1007.2 hPa 5.6 m/s 30.8 mm
07:00 11.1° 1008.6 hPa 5.7 m/s 30.8 mm 11.1° 1008.6 hPa 5.7 m/s 30.8 mm
10:00 14.5° 1009.2 hPa 5.2 m/s 30.8 mm 14.5° 1009.2 hPa 5.2 m/s 30.8 mm
13:00 16.4° 1009.7 hPa 4.1 m/s 31.1 mm 16.4° 1009.7 hPa 4.1 m/s 31.1 mm
16:00 17.3° 1010.3 hPa 4.1 m/s 31.6 mm 17.3° 1010.3 hPa 4.1 m/s 31.6 mm
19:00 16.3° 1011.1 hPa 4.9 m/s 31.7 mm 16.3° 1011.1 hPa 4.9 m/s 31.7 mm
22:00 13.3° 1012.8 hPa 4.3 m/s 31.7 mm 13.3° 1012.8 hPa 4.3 m/s 31.7 mm
 05:44     21:19    Daglengte: 15:35 Zondag 01 Aug
01:00 10.9° 1013.8 hPa 4.4 m/s 31.7 mm 10.9° 1013.8 hPa 4.4 m/s 31.7 mm
07:00 12.9° 1014.9 hPa 5.3 m/s 31.7 mm 12.9° 1014.9 hPa 5.3 m/s 31.7 mm
13:00 15.9° 1016.9 hPa 4.6 m/s 31.8 mm 15.9° 1016.9 hPa 4.6 m/s 31.8 mm
19:00 16.2° 1018.1 hPa 1.3 m/s 32.5 mm 16.2° 1018.1 hPa 1.3 m/s 32.5 mm
 05:46     21:17    Daglengte: 15:31 Maandag 02 Aug
01:00 12.5° 1020.2 hPa 2.2 m/s 32.6 mm 12.5° 1020.2 hPa 2.2 m/s 32.6 mm
07:00 12.5° 1020.9 hPa 2.8 m/s 32.6 mm 12.5° 1020.9 hPa 2.8 m/s 32.6 mm
13:00 15.2° 1022.1 hPa 1.9 m/s 32.7 mm 15.2° 1022.1 hPa 1.9 m/s 32.7 mm
19:00 15.5° 1021.5 hPa 3.0 m/s 32.7 mm 15.5° 1021.5 hPa 3.0 m/s 32.7 mm
 05:47     21:15    Daglengte: 15:28 Dinsdag 03 Aug
01:00 14.0° 1022.5 hPa 1.9 m/s 32.8 mm 14.0° 1022.5 hPa 1.9 m/s 32.8 mm
13:00 15.4° 1022.7 hPa 2.4 m/s 32.9 mm 15.4° 1022.7 hPa 2.4 m/s 32.9 mm
19:00 16.0° 1021.7 hPa 2.1 m/s 32.9 mm 16.0° 1021.7 hPa 2.1 m/s 32.9 mm
 05:49     21:13    Daglengte: 15:24 Woensdag 04 Aug
01:00 13.7° 1011.5 hPa 3.2 m/s 0.6 mm
07:00 13.2° 1010.6 hPa 3.7 m/s 0.7 mm
13:00 16.2° 1010.6 hPa 2.4 m/s 1.0 mm
19:00 16.3° 1010.3 hPa 2.6 m/s 1.3 mm
 05:51     21:11    Daglengte: 15:20 Donderdag 05 Aug
01:00 13.7° 1011.2 hPa 3.1 m/s 1.6 mm
07:00 12.8° 1011.0 hPa 3.2 m/s 0.6 mm
13:00 16.3° 1011.2 hPa 2.2 m/s 1.3 mm
19:00 16.4° 1010.9 hPa 2.8 m/s 1.4 mm
 05:52     21:09    Daglengte: 15:17 Vrijdag 06 Aug
01:00 13.7° 1011.5 hPa 2.5 m/s 0.5 mm
07:00 13.2° 1011.1 hPa 2.8 m/s 0.9 mm
13:00 16.4° 1011.9 hPa 2.5 m/s 0.6 mm
19:00 16.6° 1012.0 hPa 2.3 m/s 0.7 mm
 05:54     21:08    Daglengte: 15:14 Zaterdag 07 Aug
01:00 14.1° 1012.8 hPa 3.1 m/s 0.3 mm
07:00 13.4° 1012.6 hPa 3.4 m/s 0.3 mm
13:00 16.7° 1012.8 hPa 2.2 m/s 0.4 mm
19:00 16.9° 1012.4 hPa 2.7 m/s 0.8 mm
 05:56     21:06    Daglengte: 15:10 Zondag 08 Aug
01:00 14.1° 1013.0 hPa 3.3 m/s 0.2 mm
07:00 13.4° 1012.3 hPa 3.3 m/s 0.5 mm
13:00 16.6° 1012.4 hPa 2.0 m/s 1.4 mm
19:00 16.8° 1012.3 hPa 2.5 m/s 1.8 mm
 05:57     21:04    Daglengte: 15:07 Maandag 09 Aug
01:00 13.9° 1013.4 hPa 3.6 m/s 0.4 mm
07:00 12.9° 1014.1 hPa 3.7 m/s 0.1 mm
FMI Hirlam - 7.5 km EWN WRFDA - 12 km DWD ICON - 7 km GFS - 25 km Basiskaart






























































Updatetijd (Europe/Amsterdam) Resolutie Lengte Stap
FMI Hirlam 02:00, 08:00, 14:00, 20:00 7.5 km 49h 1h
EWN WRFDA 22:15, 04:15, 10:15, 16:15 12 km 73h 1h
DWD ICON 23:45, 05:45, 11:45, 17:45 7 km 75h 1h
GFS 02:15, 08:15, 14:15, 20:15 25 km 237h 3h
30+ mm
25-30 mm
20-25 mm
15-20 mm
10-15 mm
6-10 mm
4-6 mm
2-4 mm
1-2 mm
0.5-1 mm
0.2-0.5 mm
0.1-0.2 mm
30+ mm
25-30 mm
20-25 mm
15-20 mm
10-15 mm
6-10 mm
4-6 mm
2-4 mm
1-2 mm
0.5-1 mm
0.2-0.5 mm
0.1-0.2 mm
Sneeuwval
Natte sneeuw
Hagel
Vorst
30+ mm
25-30 mm
20-25 mm
15-20 mm
10-15 mm
6-10 mm
4-6 mm
2-4 mm
1-2 mm
0.5-1 mm
0.2-0.5 mm
0.1-0.2 mm
Sneeuwval
Natte sneeuw
Hagel
Vorst
Onweer
50 mm
40 mm
30 mm
26 mm
22 mm
18 mm
14 mm
10 mm
9 mm
8 mm
7 mm
6 mm
5 mm
4.5 mm
4 mm
3.5 mm
3 mm
2.5 mm
2 mm
1.5 mm
1 mm
0.8 mm
0.6 mm
0.4 mm
0.2 mm
0.05 mm
35°
30°
25°
20°
15°
10°
-5°
-10°
-15°
-20°
-25°
-30°
-35°
33> m/s
29 m/s
25 m/s
21 m/s
17 m/s
14 m/s
11 m/s
8 m/s
5 m/s
3 m/s
0 m/s
2600 J/kg
2400 J/kg
2200 J/kg
2000 J/kg
1800 J/kg
1600 J/kg
1400 J/kg
1200 J/kg
1000 J/kg
800 J/kg
600 J/kg
400 J/kg
200 J/kg
70 dBZ
65 dBZ
60 dBZ
55 dBZ
50 dBZ
45 dBZ
40 dBZ
35 dBZ
30 dBZ
25 dBZ
20 dBZ
15 dBZ
10 dBZ
5 dBZ
-1 K
-2 K
-3 K
-4 K
-5 K
-6 K
-7 K
-8 K
-9 K
950 m²/s²
900 m²/s²
850 m²/s²
800 m²/s²
750 m²/s²
700 m²/s²
650 m²/s²
600 m²/s²
550 m²/s²
500 m²/s²
450 m²/s²
400 m²/s²
350 m²/s²
300 m²/s²
250 m²/s²
200 m²/s²
150 m²/s²
100 m²/s²
46 m/s
44 m/s
42 m/s
40 m/s
38 m/s
36 m/s
34 m/s
32 m/s
30 m/s
28 m/s
26 m/s
24 m/s
22 m/s
20 m/s
16 m/s
12 m/s
8 m/s
4 m/s
30 m/s
28 m/s
26 m/s
24 m/s
22 m/s
20 m/s
18 m/s
16 m/s
14 m/s
12 m/s
10 m/s
8 m/s
6 m/s
4 m/s
2 m/s
3.0
2.8
2.6
2.4
2.2
2.0
1.8
1.6
1.4
1.2
1.0
0.8
0.6
0.4
0.2
15
14
13
12
11
10
9
8
7
6
5
4
3
2
1
90%
80%
70%
60%
50%
40%
30%
20%
10%
42
40
38
36
34
32
30
28
26
24
22
20
18
16
14
12
90+ cm
80-90 cm
70-80 cm
60-70 cm
50-60 cm
40-50 cm
30-40 cm
20-30 cm
10-20 cm
1-10 cm
Sneeuwval
Natte sneeuw
Regen